Theta_e
321 325 328 327 326 327 326 329 329 318 320 319 319 318 317 316 321 328 328 330 331 333 333 334 335 335 335 335 335 335 335 336 335 335 335 334 334 334 334 334 334 334 334 334
321 326 324 324 325 327 326 328 326 322 322 320 323 323 319 318 318 324 327 327 329 330 327 327 329 330 331 332 333 333 334 334 335 335 335 334 334 334 334 334 334 334 334 334
322 322 323 325 326 328 328 327 326 326 324 321 324 326 323 319 314 317 321 320 325 327 322 313 313 318 323 326 328 330 332 332 332 333 333 333 333 333 333 332 331 330 329 327
322 321 325 325 327 326 329 324 325 325 326 331 324 333 328 320 319 313 313 307 313 312 309 309 308 308 310 312 317 322 324 326 326 326 327 327 326 324 323 320 320 320 319 319
322 323 325 327 326 324 325 322 324 325 325 324 325 328 327 319 322 313 306 306 306 307 309 309 307 307 308 308 308 308 308 309 309 310 312 312 312 312 313 313 314 314 314 314
314 312 320 323 321 322 318 319 319 318 322 326 325 327 328 328 323 322 307 307 307 307 307 307 307 307 307 307 308 308 308 308 308 308 309 309 310 310 310 309 309 309 309 310
316 316 312 319 322 319 319 323 322 324 325 328 319 326 326 317 325 323 317 311 310 308 307 306 306 306 306 307 307 307 307 307 307 307 307 307 307 307 307 307 307 308 308 309
320 319 315 316 320 321 321 319 323 324 323 319 313 325 321 310 307 321 321 314 312 310 308 306 305 305 306 306 306 307 306 306 306 306 306 305 305 305 305 305 305 305 305 306
316 318 312 312 316 319 320 323 313 310 303 313 316 314 307 306 306 312 309 310 310 308 306 304 303 303 303 303 302 302 303 303 303 304 305 305 305 304 304 304 303 303 303 303
312 317 313 314 315 315 317 314 316 313 316 315 311 307 307 307 307 308 308 308 307 304 302 302 301 301 300 300 300 300 299 298 299 300 300 300 301 301 301 302 302 302 303 303
310 314 313 313 315 319 311 315 308 310 311 311 311 307 303 306 307 309 308 307 304 303 301 300 300 299 298 298 298 297 297 297 297 297 297 298 298 299 299 298 298 297 298 298
311 314 314 313 310 311 311 309 307 313 309 305 308 309 305 305 305 304 304 303 301 300 299 299 298 297 296 296 296 295 295 295 294 295 295 295 295 294 294 294 294 294 294 295
311 312 314 314 312 309 312 309 307 306 306 308 312 309 304 303 303 303 303 301 300 299 298 298 297 296 295 294 294 293 292 291 291 291 291 291 290 291 291 291 291 292 291 292
309 304 307 313 310 309 311 310 307 308 309 307 305 306 305 303 304 303 301 299 298 298 297 296 296 295 293 292 292 290 289 289 289 289 288 288 288 288 288 288 289 289 289 290
309 303 307 306 306 309 310 311 308 309 307 306 306 309 305 304 304 301 299 298 298 297 296 295 294 294 292 291 289 288 288 287 287 288 287 287 287 287 287 288 288 288 288 288
306 309 305 306 304 309 310 309 309 309 309 309 309 310 303 300 300 300 298 298 298 297 296 295 294 292 290 288 286 286 286 287 287 287 286 286 286 286 286 285 285 285 285 286
307 305 301 304 304 308 310 308 308 309 308 309 311 309 299 300 300 299 298 297 297 296 295 293 291 289 287 286 285 285 286 286 286 285 285 284 284 283 283 283 284 284 284 284
304 301 300 305 304 314 305 297 306 307 303 303 302 301 299 300 298 296 296 296 296 294 293 291 288 287 285 285 285 285 285 284 284 283 282 281 280 281 281 282 282 282 282 282
301 302 300 306 299 300 299 300 305 308 304 299 299 298 299 297 296 296 295 294 293 291 290 287 286 285 285 284 283 284 283 282 281 280 280 279 279 279 279 279 279 280 279 279
295 297 302 291 301 298 299 299 298 301 307 297 297 299 298 297 299 297 293 291 290 289 288 285 285 284 283 282 282 281 280 279 278 278 277 278 279 278 278 277 277 277 278 278
289 289 296 294 297 296 293 295 296 303 304 296 296 298 298 295 294 292 290 289 289 287 286 284 283 282 281 280 279 279 278 277 276 276 277 278 278 277 276 276 276 276 276 276
291 291 290 284 290 300 292 297 298 297 294 294 294 294 294 293 291 290 288 287 286 284 283 282 281 280 279 278 278 276 276 275 275 276 277 277 277 276 275 274 274 274 275 275
290 292 293 293 294 293 294 297 295 293 293 293 293 293 293 292 291 289 286 285 284 283 281 280 279 278 277 276 275 274 274 274 276 276 275 275 275 274 274 273 273 273 273 274
293 291 293 294 294 293 293 295 293 292 293 292 292 291 290 290 288 287 285 284 282 281 279 278 277 276 275 274 273 272 273 273 274 274 274 273 273 273 273 272 271 271 272 273
290 291 289 290 293 293 293 294 293 291 290 289 289 289 288 287 286 285 283 281 280 278 277 276 275 274 273 273 273 273 272 273 273 272 272 272 271 270 270 270 270 271 272 273
288 291 293 292 293 293 293 290 290 290 289 288 287 285 285 285 283 282 280 278 277 276 275 274 273 272 272 273 274 274 273 271 271 271 271 270 269 270 269 268 269 270 271 273
Wind_Speed
3 4 7 8 6 2 10 9 13 3 1 2 2 4 5 5 2 6 7 7 8 11 11 18 25 26 25 25 26 26 26 28 27 27 27 26 26 26 26 26 26 26 27 29
3 4 5 4 5 3 8 13 8 3 3 2 3 4 5 3 3 6 8 8 9 2 1 3 12 17 19 23 23 25 24 25 28 27 27 26 20 23 27 27 26 27 28 28
5 5 8 7 4 4 5 12 12 7 3 3 2 4 4 2 1 2 4 1 3 6 5 5 9 8 5 5 7 14 17 18 17 20 23 22 19 19 20 19 19 20 21 23
3 6 9 7 11 8 3 3 5 7 9 6 2 4 4 1 4 5 6 7 5 8 8 8 11 14 13 12 9 7 5 4 2 3 5 7 10 14 17 19 21 21 21 21
5 10 10 10 9 10 2 5 7 3 4 2 2 2 3 0 3 5 8 7 8 7 8 6 10 13 14 14 15 14 10 9 7 6 5 6 8 11 15 17 19 19 20 20
2 3 3 2 9 8 9 8 8 5 3 4 5 8 3 7 5 4 8 8 5 8 8 10 15 19 23 23 23 23 21 20 18 16 14 13 13 14 16 18 20 22 22 22
2 1 1 1 8 13 6 8 2 2 3 3 5 7 2 5 6 7 9 10 6 12 13 10 17 18 23 27 26 26 25 25 22 21 20 19 18 18 18 19 21 23 25 26
5 4 4 1 2 6 11 5 4 6 5 3 2 5 3 3 4 12 7 11 8 10 10 7 15 16 24 24 25 24 24 21 18 18 19 18 18 18 18 19 20 21 23 24
3 2 3 2 1 10 4 4 2 4 3 3 3 2 2 4 7 12 11 12 9 9 6 8 16 18 20 23 24 24 25 23 23 23 21 20 19 19 20 19 19 21 22 23
2 3 2 4 2 2 3 5 3 1 4 2 3 4 3 6 8 13 13 13 12 10 9 9 14 20 23 24 25 24 24 25 24 24 24 23 22 20 20 20 22 23 23 23
4 2 1 4 1 4 4 3 4 3 2 4 4 4 2 6 11 17 17 11 11 10 9 8 14 19 20 22 23 24 25 25 25 23 22 22 23 24 24 25 25 26 27 27
5 3 2 2 3 2 2 4 4 3 3 1 1 2 4 7 7 9 11 11 8 8 7 11 15 17 20 21 22 22 23 23 20 19 19 20 22 24 26 28 29 31 32 32
5 3 2 3 3 2 3 3 3 4 3 1 3 2 5 9 11 8 13 10 8 7 7 9 14 16 19 20 19 19 18 17 17 17 19 21 24 25 27 28 29 30 31 33
2 3 4 4 3 5 5 4 4 3 3 1 1 5 1 6 11 9 9 9 8 7 7 6 10 14 14 13 12 12 14 17 19 19 22 26 28 29 30 30 32 33 35 38
1 3 2 2 3 1 2 6 5 3 3 3 6 13 8 6 10 8 8 8 8 7 6 5 5 5 5 4 9 14 17 20 22 23 26 29 31 33 33 35 38 39 40 41
2 2 2 5 7 2 1 6 13 7 5 4 9 3 1 5 7 6 7 7 7 6 5 4 4 3 2 8 13 17 20 23 24 25 30 31 35 36 38 40 41 42 45 46
3 4 2 2 4 4 4 6 7 4 4 8 6 5 7 7 9 7 6 6 6 5 4 4 3 5 9 15 18 22 23 25 27 29 31 34 36 37 38 41 43 44 44 46
4 3 2 1 3 3 3 4 4 8 3 2 6 14 10 9 6 6 3 6 7 5 3 4 7 10 16 19 21 22 23 25 26 30 32 33 33 34 38 39 40 43 42 40
4 3 3 3 2 3 2 3 5 6 4 2 10 9 11 11 5 1 2 3 5 5 5 9 12 14 16 18 20 21 22 23 26 28 30 31 33 35 36 36 38 39 37 35
7 6 3 1 4 6 2 1 1 1 2 8 7 14 16 9 5 4 5 7 6 6 8 11 11 10 13 16 18 18 20 20 24 26 27 31 33 34 33 33 34 33 33 33
3 3 3 0 1 5 5 4 3 6 5 6 9 11 12 4 1 6 9 5 5 6 7 7 9 10 11 14 16 18 16 18 22 25 28 31 31 33 32 32 34 34 32 31
4 4 3 3 2 4 1 1 5 2 4 7 6 5 6 7 7 6 6 7 6 5 3 7 10 12 11 14 16 15 13 18 21 27 30 31 32 32 32 33 33 33 31 29
2 4 3 6 4 2 2 3 2 2 5 4 7 5 7 7 5 7 5 7 6 5 6 9 12 12 9 11 11 12 15 20 25 28 28 29 30 30 31 31 31 29 28 26
3 3 2 2 2 5 4 1 2 4 5 5 5 6 6 7 7 5 5 6 4 5 7 10 8 8 9 10 9 12 15 21 24 27 28 28 29 30 30 30 28 25 24 25
4 5 5 4 5 2 4 5 6 5 7 7 6 5 6 7 5 5 5 4 3 2 3 5 6 7 9 11 14 16 19 23 24 24 25 26 27 27 28 28 25 24 24 22
6 7 5 5 7 6 4 8 8 9 8 8 7 5 5 6 8 8 6 4 3 3 4 5 6 7 10 13 16 17 19 19 20 22 25 25 26 28 28 26 29 24 21 24
Wind_Direction
134 180 195 188 199 337 164 189 201 134 308 148 114 260 286 324 199 184 201 209 215 214 220 223 225 226 226 226 224 226 228 231 229 229 231 238 243 251 254 258 264 268 270 271
113 239 180 116 149 194 215 186 174 96 334 129 16 289 269 297 217 200 203 208 220 192 161 269 241 234 236 237 234 231 232 237 234 237 241 244 254 261 265 268 271 274 277 279
178 146 166 164 167 168 199 206 179 162 142 94 72 319 2 325 264 173 225 299 118 138 79 25 52 69 108 189 231 239 246 249 252 252 253 256 262 268 278 285 290 294 294 294
237 160 171 191 196 178 182 164 123 117 162 207 75 253 220 248 353 27 86 72 84 94 77 51 63 74 74 73 79 96 111 136 165 237 254 274 286 295 303 309 308 309 310 307
184 171 178 193 198 176 132 170 145 122 121 105 179 180 247 16 154 77 65 38 62 53 92 90 73 75 68 65 57 57 63 58 37 16 351 329 325 326 322 327 323 323 319 319
87 309 183 160 128 133 129 90 69 57 77 234 174 183 213 208 170 108 84 53 52 83 64 64 72 71 67 65 64 61 55 49 42 35 31 23 10 357 347 343 336 332 329 328
159 12 345 239 107 138 112 140 108 147 189 212 180 185 243 241 242 150 142 101 25 60 52 23 39 45 62 60 58 59 54 44 36 36 34 28 18 9 360 354 345 340 337 336
159 186 180 282 169 157 147 143 162 177 184 142 145 211 243 261 226 212 151 121 99 78 65 45 48 43 53 56 54 50 49 45 32 30 28 25 20 13 7 358 350 342 339 337
138 115 337 219 157 148 146 167 79 99 48 88 190 227 354 51 78 113 123 126 126 113 118 106 76 71 70 64 61 55 49 43 35 28 23 19 15 9 2 357 354 349 347 340
183 111 356 325 102 331 183 144 79 4 139 161 231 222 192 164 140 123 126 133 130 129 114 89 79 68 66 63 59 55 48 41 36 31 26 23 20 15 8 1 358 353 345 341
134 52 130 319 321 163 151 136 208 129 137 159 134 252 215 159 165 149 143 136 124 114 101 87 79 72 67 62 56 47 41 35 31 26 21 18 16 14 11 8 4 360 356 354
178 100 175 180 249 234 326 178 174 135 219 343 52 269 332 147 121 122 116 115 103 96 98 87 78 70 60 54 48 42 36 33 27 23 20 18 14 11 7 4 360 357 354 350
158 174 147 72 318 66 218 213 109 109 69 167 109 272 30 84 93 96 116 110 100 99 86 77 67 57 47 41 38 32 25 19 19 21 21 19 17 14 11 7 0 356 352 350
109 120 184 196 200 143 177 178 148 99 98 175 110 139 178 116 122 123 113 105 100 89 78 68 62 56 44 36 33 25 24 21 20 22 21 15 10 6 2 357 352 349 348 345
76 127 104 50 322 308 158 167 135 131 171 158 169 169 177 162 145 137 122 110 103 92 84 80 79 79 38 22 26 25 26 20 15 14 13 8 1 357 353 351 348 346 343 341
23 108 71 11 6 164 175 195 177 160 104 96 124 119 140 106 102 112 113 113 117 122 117 103 102 130 40 31 24 21 17 15 9 7 6 1 356 352 350 349 348 346 343 340
109 128 94 256 346 37 338 214 170 139 148 150 153 183 151 123 125 132 139 135 136 142 131 117 106 46 36 27 19 18 11 4 2 1 359 357 353 350 350 347 346 344 341 339
117 98 50 133 31 185 269 313 193 125 73 114 95 146 151 138 121 122 127 147 149 139 97 73 33 31 25 18 14 7 5 1 359 357 357 352 350 350 350 346 344 342 339 335
44 112 92 158 188 289 11 193 151 143 219 225 134 122 122 125 93 94 128 98 119 120 82 45 29 26 17 12 5 2 0 358 354 354 351 350 352 350 347 344 341 339 330 325
98 61 115 68 138 191 204 157 286 219 272 189 157 150 151 156 163 201 157 135 113 77 50 37 26 16 8 3 2 1 359 355 350 348 345 351 352 348 345 342 337 328 326 324
28 17 111 86 225 290 242 262 288 118 232 130 145 153 156 155 158 131 123 100 96 62 54 34 25 16 2 357 359 3 356 349 343 345 351 352 349 348 344 340 337 332 327 324
170 134 169 90 62 268 309 55 168 191 55 113 112 115 123 122 126 126 133 128 128 120 69 20 11 14 4 359 360 355 347 339 343 350 352 350 348 348 344 341 339 336 332 331
270 185 183 189 214 250 270 285 8 88 115 116 113 124 136 141 158 153 140 135 118 68 24 1 5 359 357 354 356 343 342 347 351 350 349 348 346 346 346 343 337 332 333 330
249 177 175 70 246 231 243 75 114 120 111 129 128 140 147 154 158 147 140 127 96 41 13 353 333 340 348 344 350 354 355 352 351 349 348 347 345 344 344 343 339 328 324 323
206 134 175 267 262 323 231 203 165 124 126 125 124 136 146 140 142 135 119 107 54 3 315 297 324 325 326 340 355 3 359 352 347 343 344 344 341 339 336 338 331 320 313 315
190 180 167 217 212 171 204 185 161 150 164 157 140 122 114 143 130 132 142 163 191 244 278 288 297 319 343 352 358 357 349 344 343 341 341 338 337 339 338 329 324 328 318 320